Adak, AK

4:20 AM HDT on July 21, 2017 (GMT -0900)
Adak

Weather History for PADK - November, 2013

Change the Weather History Date:

Saturday, November 2, 2013

  Actual Average Record
Temperature  
Mean Temperature 40 °F -  
Max Temperature 44 °F 43 °F 51 °F (2011)
Min Temperature 37 °F 35 °F 28 °F (2007)
Degree Days  
Heating Degree Days 24    
Moisture  
Dew Point 38 °F    
Average Humidity 83    
Maximum Humidity 93    
Minimum Humidity 74    
Precipitation  
Precipitation 0.03 in - - ()
Sea Level Pressure  
Sea Level Pressure 29.26 in    
Wind  
Wind Speed 17 mph (SSW)    
Max Wind Speed 29 mph    
Max Gust Speed 37 mph    
Visibility 9 miles    
Events      
Averages and records for this station are not official NWS values.
T = Trace of Precipitation, MM = Missing Value Source: NWS Daily Summary

Daily Weather History Graph

Daily Weather History Graph

Search for Another Location

Airport or City:

Trip Planner

Search our weather history database for the weather conditions in past years. The results will help you decide how hot, cold, wet, or windy it might be!

Date:

Astronomy

Nov. 02, 2013 Rise Set
Actual Time 9:43 AM HDT 7:15 PM HDT
Civil Twilight 9:08 AM HDT 7:51 PM HDT
Nautical Twilight 8:28 AM HDT 8:31 PM HDT
Astronomical Twilight 7:49 AM HDT 9:10 PM HDT
Moon 8:54 AM HDT (11/2) 6:57 PM HDT (11/2)
Length of Visible Light 10h 43m
Length of Day
9h 31m
Waning Crescent, 1% of the Moon is Illuminated
Nov 2
Waning Crescent
Nov 3
New
Nov 9
First Quarter
Nov 17
Full
Nov 25
Last Quarter

Hourly Weather History & Observations

Time (HDT) Temp. Windchill Dew Point Humidity Pressure Visibility Wind Dir Wind Speed Gust Speed Precip Events Conditions
12:16 AM 44.6 °F 35.9 °F 42.8 °F 93% 29.16 in 10.0 mi WSW 23.0 mph 28.8 mph N/A   Overcast
12:36 AM 44.6 °F 35.7 °F 42.8 °F 93% 29.18 in 7.0 mi West 24.2 mph 32.2 mph N/A   Overcast
12:56 AM 44.6 °F 36.1 °F 42.8 °F 93% 29.19 in 10.0 mi WSW 21.9 mph 31.1 mph N/A   Overcast
1:16 AM 44.6 °F 35.3 °F 42.8 °F 93% 29.22 in 10.0 mi WSW 26.5 mph 31.1 mph N/A   Overcast
1:36 AM 44.6 °F 35.9 °F 41.0 °F 87% 29.23 in 10.0 mi WSW 23.0 mph 27.6 mph N/A   Overcast
1:56 AM 44.6 °F 35.1 °F 41.0 °F 87% 29.24 in 10.0 mi WSW 27.6 mph 33.4 mph N/A   Overcast
2:16 AM 44.6 °F 35.7 °F 41.0 °F 87% 29.26 in 10.0 mi WSW 24.2 mph 31.1 mph N/A   Overcast
2:36 AM 44.6 °F 34.9 °F 39.2 °F 81% 29.28 in 7.0 mi WSW 28.8 mph 33.4 mph N/A   Overcast
2:56 AM 42.8 °F 34.3 °F 39.2 °F 87% 29.29 in 5.0 mi West 19.6 mph 29.9 mph N/A   Overcast
3:16 AM 42.8 °F 34.5 °F 39.2 °F 87% 29.30 in 5.0 mi West 18.4 mph 25.3 mph N/A   Mostly Cloudy
3:36 AM 42.8 °F 34.0 °F 39.2 °F 87% 29.31 in 10.0 mi West 20.7 mph 28.8 mph N/A   Overcast
3:56 AM 42.8 °F 33.1 °F 39.2 °F 87% 29.32 in 3.0 mi WSW 25.3 mph 28.8 mph N/A   Overcast
4:16 AM 42.8 °F 33.5 °F 39.2 °F 87% 29.32 in 9.0 mi WSW 23.0 mph 28.8 mph N/A   Overcast
4:36 AM 42.8 °F 35.1 °F 39.2 °F 87% 29.33 in 10.0 mi WSW 16.1 mph - N/A   Overcast
4:56 AM 42.8 °F 35.4 °F 39.2 °F 87% 29.36 in 10.0 mi SW 15.0 mph 20.7 mph N/A   Overcast
5:16 AM 42.8 °F 34.5 °F 39.2 °F 87% 29.35 in 3.0 mi SW 18.4 mph - N/A   Overcast
5:36 AM 42.8 °F 35.4 °F 39.2 °F 87% 29.37 in 3.0 mi SW 15.0 mph - N/A   Overcast
5:56 AM 42.8 °F 35.1 °F 39.2 °F 87% 29.38 in 7.0 mi SW 16.1 mph - N/A   Overcast
6:16 AM 42.8 °F 35.4 °F 39.2 °F 87% 29.38 in 10.0 mi SW 15.0 mph 18.4 mph N/A   Overcast
6:36 AM 42.8 °F 33.8 °F 37.4 °F 81% 29.39 in 9.0 mi WSW 21.9 mph - N/A   Overcast
6:56 AM 42.8 °F 34.8 °F 39.2 °F 87% 29.39 in 10.0 mi WSW 17.3 mph - N/A   Overcast
7:16 AM 42.8 °F 35.1 °F 37.4 °F 81% 29.38 in 10.0 mi WSW 16.1 mph - N/A   Overcast
7:36 AM 42.8 °F 35.4 °F 37.4 °F 81% 29.38 in 10.0 mi WSW 15.0 mph - N/A   Overcast
7:56 AM 42.8 °F 35.1 °F 37.4 °F 81% 29.38 in 10.0 mi SW 16.1 mph - N/A   Overcast
8:16 AM 41.0 °F 34.3 °F 37.4 °F 87% 29.38 in 10.0 mi SW 11.5 mph - N/A   Mostly Cloudy
8:36 AM 42.8 °F 35.8 °F 37.4 °F 81% 29.40 in 10.0 mi SW 13.8 mph - N/A   Overcast
8:56 AM 42.8 °F 36.2 °F 37.4 °F 81% 29.41 in 10.0 mi SW 12.7 mph - N/A   Overcast
9:16 AM 42.8 °F 38.0 °F 37.4 °F 81% 29.41 in 10.0 mi SW 8.1 mph - N/A   Overcast
9:36 AM 42.8 °F 36.6 °F 37.4 °F 81% 29.40 in 10.0 mi SW 11.5 mph - N/A   Overcast
9:56 AM 42.8 °F 36.6 °F 37.4 °F 81% 29.42 in 8.0 mi WSW 11.5 mph - N/A   Overcast
10:16 AM 42.8 °F 37.0 °F 37.4 °F 81% 29.41 in 10.0 mi SW 10.4 mph - N/A   Overcast
10:36 AM 42.8 °F 41.1 °F 37.4 °F 81% 29.42 in 10.0 mi SSW 3.5 mph - N/A   Overcast
10:56 AM 42.8 °F 40.1 °F 37.4 °F 81% 29.41 in 10.0 mi SW 4.6 mph - N/A   Overcast
11:16 AM 42.8 °F 40.1 °F 37.4 °F 81% 29.41 in 10.0 mi South 4.6 mph - N/A   Overcast
11:36 AM 42.8 °F 37.5 °F 37.4 °F 81% 29.40 in 10.0 mi South 9.2 mph - N/A   Overcast
11:56 AM 42.8 °F 37.5 °F 37.4 °F 81% 29.39 in 10.0 mi South 9.2 mph - N/A   Overcast
12:16 PM 42.8 °F 37.0 °F 37.4 °F 81% 29.38 in 10.0 mi South 10.4 mph - N/A   Overcast
12:36 PM 42.8 °F 41.1 °F 37.4 °F 81% 29.37 in 10.0 mi SSE 3.5 mph - N/A   Overcast
12:56 PM 42.8 °F 38.6 °F 39.2 °F 87% 29.36 in 10.0 mi SSE 6.9 mph - N/A   Overcast
1:16 PM 42.8 °F 39.3 °F 39.2 °F 87% 29.34 in 10.0 mi SE 5.8 mph - N/A   Overcast
1:36 PM 42.8 °F - 39.2 °F 87% 29.33 in 8.0 mi Calm Calm - N/A   Mostly Cloudy
1:56 PM 42.8 °F 39.3 °F 37.4 °F 81% 29.30 in 5.0 mi SE 5.8 mph - N/A   Mostly Cloudy
2:16 PM 42.8 °F 35.4 °F 39.2 °F 87% 29.27 in 9.0 mi East 15.0 mph - 0.01 in   Overcast
2:36 PM 42.8 °F 35.1 °F 39.2 °F 87% 29.25 in 5.0 mi East 16.1 mph 19.6 mph 0.03 in   Overcast
2:56 PM 42.8 °F 34.8 °F 39.2 °F 87% 29.23 in 5.0 mi East 17.3 mph - 0.03 in   Overcast
3:16 PM 42.8 °F 35.1 °F 39.2 °F 87% 29.21 in 4.0 mi East 16.1 mph - 0.01 in   Overcast
3:36 PM 44.6 °F 37.4 °F 39.2 °F 81% 29.18 in 4.0 mi ESE 16.1 mph 26.5 mph 0.03 in   Overcast
3:56 PM 44.6 °F 35.3 °F 39.2 °F 81% 29.17 in 7.0 mi SSE 26.5 mph 36.8 mph 0.04 in   Overcast
4:16 PM 42.8 °F 34.5 °F 39.2 °F 87% 29.17 in 9.0 mi SW 18.4 mph - 0.02 in   Overcast
4:36 PM 42.8 °F 37.5 °F 35.6 °F 76% 29.17 in 10.0 mi South 9.2 mph - 0.02 in   Mostly Cloudy
4:56 PM 42.8 °F - 37.4 °F 81% 29.16 in 10.0 mi Calm Calm - 0.02 in   Overcast
5:16 PM 44.6 °F 39.7 °F 37.4 °F 76% 29.15 in 10.0 mi South 9.2 mph - N/A   Overcast
5:36 PM 44.6 °F 39.7 °F 39.2 °F 81% 29.16 in 10.0 mi South 9.2 mph - N/A   Overcast
5:56 PM 44.6 °F 38.4 °F 37.4 °F 76% 29.15 in 10.0 mi SSW 12.7 mph - N/A   Overcast
6:16 PM 44.6 °F 38.1 °F 37.4 °F 76% 29.14 in 10.0 mi South 13.8 mph - N/A   Overcast
6:36 PM 44.6 °F 39.2 °F 37.4 °F 76% 29.14 in 10.0 mi SSW 10.4 mph - N/A   Overcast
6:56 PM 44.6 °F 38.8 °F 37.4 °F 76% 29.13 in 10.0 mi SSW 11.5 mph - N/A   Overcast
7:16 PM 44.6 °F 39.2 °F 37.4 °F 76% 29.13 in 9.0 mi South 10.4 mph - N/A   Overcast
7:36 PM 44.6 °F 38.1 °F 37.4 °F 76% 29.12 in 10.0 mi South 13.8 mph - N/A   Mostly Cloudy
7:56 PM 44.6 °F 38.4 °F 37.4 °F 76% 29.12 in 10.0 mi South 12.7 mph - N/A   Overcast
8:16 PM 44.6 °F 38.4 °F 37.4 °F 76% 29.11 in 10.0 mi South 12.7 mph - N/A   Overcast
8:36 PM 42.8 °F 36.2 °F 37.4 °F 81% 29.11 in 10.0 mi South 12.7 mph - N/A   Mostly Cloudy
8:56 PM 42.8 °F 36.6 °F 35.6 °F 76% 29.11 in 10.0 mi South 11.5 mph - N/A   Scattered Clouds
9:16 PM 41.0 °F 36.4 °F 35.6 °F 81% 29.11 in 10.0 mi SSW 6.9 mph - N/A   Mostly Cloudy
9:36 PM 41.0 °F 35.8 °F 35.6 °F 81% 29.10 in 10.0 mi South 8.1 mph - N/A   Scattered Clouds
9:56 PM 39.2 °F 34.2 °F 33.8 °F 81% 29.10 in 10.0 mi SSW 6.9 mph - N/A   Clear
10:16 PM 39.2 °F 35.9 °F 33.8 °F 81% 29.10 in 10.0 mi WSW 4.6 mph - N/A   Scattered Clouds
10:36 PM 39.2 °F 34.2 °F 35.6 °F 87% 29.10 in 10.0 mi South 6.9 mph - N/A   Mostly Cloudy
10:56 PM 37.4 °F 32.8 °F 33.8 °F 87% 29.10 in 10.0 mi WNW 5.8 mph - N/A   Mostly Cloudy
11:16 PM 37.4 °F - 33.8 °F 87% 29.10 in 10.0 mi Calm Calm - N/A   Overcast
11:36 PM 39.2 °F - 35.6 °F 87% 29.10 in 10.0 mi Calm Calm - N/A   Overcast
11:56 PM 39.2 °F - 35.6 °F 87% 29.11 in 10.0 mi Calm Calm - N/A   Overcast